SENTINEL-3A

Last updated on Sat Aug 15 2026 00:02:40 GMT+0000 (Coordinated Universal Time)

1 41335U 16011A 26226.56458642 .00000033 00000+0 31652-4 0 9999 2 41335 98.6210 293.0976 0001045 88.9061 271.2239 14.26737268546380
UTC large
Height (km)
Speed (km/s)
/
Latitude / Longitude
Inclination (degrees)
Orbital Period (minutes)
Azimuth
Elevation
Range (km)
Doppler Factor

Next 0 passes for location: London (51.5072 / 0.1276)

No passes found over London.
SENTINEL-3A